WZZ5UJ LEMH-EPWA

Flight info

Callsign WZZ5UJ
Flight time 2h 37m
Altitude 36000
Route ISTER UN851 LUNOR DCT NIVDA DCT OMEDA DCT RAPUR DCT TORTU DCT ERTEV DCT OSBUL DCT IBUPU DCT ROKIB DCT MALUG/N0452F370 DCT INGID DCT STO DCT LEDVA DCT NETIR DCT USALO DCT KOTEK DCT LOGDA
Aircraft A21N/M-SDE3FGHIRWY/LB1

Departure

Time 2026-04-30 10:33
Airport Menorca Airport (LEMH)

Arrival

Time 2026-04-30 13:10
Airport Warsaw Chopin Airport (EPWA)
Time Latitude Longitude Altitude Speed Heading
2026-04-30 09:46 39.86667 4.22448 281 ft 0 kts 99°
2026-04-30 10:25 39.86668 4.22436 281 ft 2 kts 99°
2026-04-30 10:25 39.86671 4.22417 280 ft 2 kts 99°
2026-04-30 10:26 39.86673 4.22404 280 ft 1 kts 99°
2026-04-30 10:26 39.86672 4.22384 279 ft 2 kts 70°
2026-04-30 10:26 39.86665 4.22367 278 ft 2 kts 46°
2026-04-30 10:26 39.86652 4.22356 278 ft 2 kts 20°
2026-04-30 10:27 39.86645 4.22353 277 ft 1 kts
2026-04-30 10:27 39.86640 4.22352 277 ft 0 kts
2026-04-30 10:29 39.86641 4.22352 277 ft 1 kts
2026-04-30 10:29 39.86668 4.22358 279 ft 6 kts
2026-04-30 10:29 39.86731 4.22370 283 ft 11 kts
2026-04-30 10:29 39.86824 4.22390 286 ft 14 kts 10°
2026-04-30 10:30 39.86905 4.22378 291 ft 9 kts 312°
2026-04-30 10:30 39.86923 4.22307 294 ft 8 kts 277°
2026-04-30 10:30 39.86962 4.22253 296 ft 10 kts 347°
2026-04-30 10:30 39.87056 4.22267 298 ft 17 kts
2026-04-30 10:31 39.87203 4.22297 299 ft 24 kts 10°
2026-04-30 10:31 39.87355 4.22323 307 ft 19 kts 352°
2026-04-30 10:31 39.87387 4.22243 308 ft 8 kts 277°
2026-04-30 10:31 39.87386 4.22158 308 ft 12 kts 259°
2026-04-30 10:32 39.87333 4.22082 304 ft 10 kts 190°
2026-04-30 10:32 39.87121 4.22043 297 ft 65 kts 189°
2026-04-30 10:32 39.86440 4.21904 296 ft 131 kts 189°
2026-04-30 10:32 39.85368 4.21665 542 ft 162 kts 188°
2026-04-30 10:33 39.84261 4.21430 1303 ft 155 kts 185°
2026-04-30 10:33 39.83225 4.21213 2055 ft 148 kts 186°
2026-04-30 10:33 39.82204 4.20997 2643 ft 147 kts 186°
2026-04-30 10:33 39.81140 4.20773 3213 ft 149 kts 186°
2026-04-30 10:34 39.80102 4.20585 3707 ft 155 kts 178°
2026-04-30 10:34 39.79096 4.21147 4049 ft 168 kts 127°
2026-04-30 10:34 39.78841 4.22664 4394 ft 188 kts 78°
2026-04-30 10:34 39.79577 4.24179 4795 ft 207 kts 50°
2026-04-30 10:35 39.80595 4.25718 5251 ft 223 kts 52°
2026-04-30 10:35 39.81678 4.27438 5658 ft 244 kts 52°
2026-04-30 10:35 39.82830 4.29277 6102 ft 263 kts 52°
2026-04-30 10:35 39.84025 4.31174 6822 ft 270 kts 51°
2026-04-30 10:36 39.85239 4.33096 7497 ft 279 kts 51°
2026-04-30 10:36 39.86495 4.35082 8089 ft 290 kts 51°
2026-04-30 10:36 39.87840 4.37207 8880 ft 295 kts 50°
2026-04-30 10:36 39.89184 4.39327 9659 ft 299 kts 50°
2026-04-30 10:37 39.90544 4.41471 10417 ft 304 kts 50°
2026-04-30 10:37 39.91925 4.43648 10873 ft 319 kts 50°
2026-04-30 10:37 39.93380 4.45944 11350 ft 332 kts 50°
2026-04-30 10:37 39.94856 4.48278 12066 ft 336 kts 50°
2026-04-30 10:38 39.96373 4.50681 12812 ft 339 kts 49°
2026-04-30 10:38 39.97884 4.53078 13527 ft 342 kts 49°
2026-04-30 10:38 39.99407 4.55494 14201 ft 345 kts 49°
2026-04-30 10:38 40.00954 4.57952 14872 ft 349 kts 49°
2026-04-30 10:39 40.02501 4.60409 15487 ft 353 kts 49°
2026-04-30 10:39 40.04092 4.62938 16108 ft 357 kts 49°
2026-04-30 10:39 40.05706 4.65580 16744 ft 362 kts 52°
2026-04-30 10:39 40.07169 4.68329 17335 ft 366 kts 56°
2026-04-30 10:40 40.08520 4.71260 17896 ft 370 kts 59°
2026-04-30 10:40 40.09858 4.74282 18492 ft 373 kts 59°
2026-04-30 10:40 40.11186 4.77303 19051 ft 377 kts 59°
2026-04-30 10:40 40.12539 4.80379 19580 ft 381 kts 59°
2026-04-30 10:41 40.13924 4.83526 20126 ft 385 kts 59°
2026-04-30 10:41 40.15333 4.86724 20652 ft 389 kts 58°
2026-04-30 10:41 40.16779 4.90004 21179 ft 393 kts 58°
2026-04-30 10:41 40.18227 4.93296 21685 ft 397 kts 58°
2026-04-30 10:42 40.19679 4.96594 22189 ft 400 kts 58°
2026-04-30 10:42 40.21093 4.99809 22648 ft 404 kts 58°
2026-04-30 10:42 40.22546 5.03120 23120 ft 408 kts 58°
2026-04-30 10:42 40.24015 5.06467 23563 ft 411 kts 58°
2026-04-30 10:43 40.25521 5.09905 24016 ft 415 kts 58°
2026-04-30 10:43 40.27032 5.13359 24454 ft 419 kts 58°
2026-04-30 10:43 40.28546 5.16822 24881 ft 422 kts 58°
2026-04-30 10:43 40.30081 5.20337 25324 ft 425 kts 58°
2026-04-30 10:44 40.31613 5.23848 25750 ft 428 kts 58°
2026-04-30 10:44 40.33152 5.27381 26172 ft 431 kts 58°
2026-04-30 10:44 40.34725 5.30997 26581 ft 434 kts 58°
2026-04-30 10:44 40.36297 5.34615 26980 ft 437 kts 57°
2026-04-30 10:45 40.37980 5.38197 27366 ft 438 kts 52°
2026-04-30 10:45 40.39926 5.41543 27749 ft 438 kts 46°
2026-04-30 10:45 40.42078 5.44603 28130 ft 439 kts 42°
2026-04-30 10:45 40.44294 5.47568 28505 ft 441 kts 41°
2026-04-30 10:46 40.46521 5.50518 28871 ft 444 kts 41°
2026-04-30 10:46 40.48754 5.53488 29232 ft 446 kts 41°
2026-04-30 10:46 40.51029 5.56527 29602 ft 449 kts 41°
2026-04-30 10:46 40.53284 5.59553 29952 ft 451 kts 41°
2026-04-30 10:47 40.55598 5.62666 30306 ft 453 kts 41°
2026-04-30 10:47 40.57883 5.65745 30642 ft 456 kts 41°
2026-04-30 10:47 40.60166 5.68828 30952 ft 459 kts 41°
2026-04-30 10:47 40.62482 5.71961 31265 ft 461 kts 41°
2026-04-30 10:48 40.64745 5.75025 31557 ft 463 kts 41°
2026-04-30 10:48 40.67083 5.78195 31836 ft 466 kts 41°
2026-04-30 10:48 40.69391 5.81327 32138 ft 468 kts 41°
2026-04-30 10:48 40.71736 5.84510 32423 ft 471 kts 41°
2026-04-30 10:49 40.74085 5.87705 32704 ft 473 kts 41°
2026-04-30 10:49 40.76454 5.90930 32995 ft 475 kts 41°
2026-04-30 10:49 40.78832 5.94171 33332 ft 475 kts 41°
2026-04-30 10:49 40.81192 5.97393 33723 ft 474 kts 41°
2026-04-30 10:50 40.83564 6.00634 34095 ft 474 kts 41°
2026-04-30 10:50 40.85942 6.03886 34483 ft 473 kts 40°
2026-04-30 10:50 40.88335 6.07162 34807 ft 474 kts 40°
2026-04-30 10:50 40.90686 6.10384 35116 ft 475 kts 40°
2026-04-30 10:51 40.93089 6.13679 35460 ft 475 kts 40°
2026-04-30 10:51 40.95475 6.16954 35777 ft 475 kts 40°
2026-04-30 10:51 40.97831 6.20191 36020 ft 477 kts 40°
2026-04-30 10:51 41.00207 6.23461 36059 ft 479 kts 40°
2026-04-30 10:52 41.04915 6.29951 35847 ft 479 kts 40°
2026-04-30 10:52 41.07322 6.33275 35979 ft 481 kts 40°
2026-04-30 10:52 41.09711 6.36579 36029 ft 480 kts 40°
2026-04-30 10:53 41.14469 6.43173 36061 ft 479 kts 40°
2026-04-30 10:53 41.19191 6.49724 36072 ft 480 kts 40°
2026-04-30 10:54 41.24002 6.56457 36074 ft 481 kts 42°
2026-04-30 10:54 41.28396 6.63336 36077 ft 483 kts 45°
2026-04-30 10:55 41.32856 6.70545 36077 ft 482 kts 45°
2026-04-30 10:55 41.37177 6.77538 36081 ft 482 kts 45°
2026-04-30 10:56 41.41526 6.84575 36080 ft 481 kts 45°
2026-04-30 10:56 41.45964 6.91766 36078 ft 482 kts 45°
2026-04-30 10:57 41.50417 6.99003 36082 ft 482 kts 45°
2026-04-30 10:57 41.54783 7.06108 36080 ft 483 kts 45°
2026-04-30 10:58 41.59136 7.13214 36080 ft 481 kts 45°
2026-04-30 10:58 41.63392 7.20177 36081 ft 481 kts 45°
2026-04-30 10:59 41.67667 7.27188 36079 ft 480 kts 45°
2026-04-30 10:59 41.71938 7.34205 36077 ft 479 kts 46°
2026-04-30 11:00 41.76197 7.41221 36078 ft 480 kts 45°
2026-04-30 11:00 41.80549 7.48409 36076 ft 479 kts 45°
2026-04-30 11:01 41.84878 7.55576 36076 ft 478 kts 45°
2026-04-30 11:01 41.89222 7.62781 36077 ft 478 kts 45°
2026-04-30 11:02 41.93532 7.69951 36072 ft 477 kts 46°
2026-04-30 11:02 41.97876 7.77191 36076 ft 477 kts 46°
2026-04-30 11:03 42.02130 7.84304 36079 ft 478 kts 46°
2026-04-30 11:04 42.08406 7.94822 36073 ft 477 kts 46°
2026-04-30 11:04 42.12593 8.01860 36072 ft 476 kts 46°
2026-04-30 11:05 42.16732 8.08834 36070 ft 476 kts 46°
2026-04-30 11:05 42.20894 8.15864 36075 ft 475 kts 46°
2026-04-30 11:06 42.25040 8.22882 36081 ft 475 kts 46°
2026-04-30 11:06 42.29300 8.29730 36081 ft 471 kts 40°
2026-04-30 11:07 42.34245 8.35543 36086 ft 461 kts 29°
2026-04-30 11:07 42.39713 8.39973 36089 ft 452 kts 19°
2026-04-30 11:08 42.45526 8.43324 36096 ft 449 kts 15°
2026-04-30 11:08 42.51339 8.46500 36101 ft 449 kts 15°
2026-04-30 11:09 42.57126 8.49696 36105 ft 448 kts 15°
2026-04-30 11:09 42.62981 8.52952 36108 ft 448 kts 15°
2026-04-30 11:10 42.68783 8.56189 36108 ft 447 kts 15°
2026-04-30 11:10 42.74627 8.59459 36112 ft 446 kts 15°
2026-04-30 11:11 42.80459 8.62727 36116 ft 446 kts 15°
2026-04-30 11:11 42.86279 8.65996 36119 ft 448 kts 16°
2026-04-30 11:12 42.92131 8.69294 36126 ft 447 kts 16°
2026-04-30 11:12 42.97960 8.72585 36130 ft 446 kts 16°
2026-04-30 11:13 43.03824 8.75903 36134 ft 445 kts 16°
2026-04-30 11:13 43.09656 8.79209 36127 ft 445 kts 16°
2026-04-30 11:14 43.15403 8.82474 36132 ft 444 kts 16°
2026-04-30 11:14 43.21104 8.85719 36137 ft 445 kts 16°
2026-04-30 11:15 43.26821 8.88983 36132 ft 444 kts 16°
2026-04-30 11:15 43.32557 8.92136 36133 ft 440 kts 13°
2026-04-30 11:16 43.38398 8.94403 36138 ft 434 kts
2026-04-30 11:16 43.44315 8.95635 36138 ft 428 kts 359°
2026-04-30 11:17 43.50213 8.95911 36151 ft 424 kts 355°
2026-04-30 11:17 43.56150 8.95993 36148 ft 427 kts 359°
2026-04-30 11:18 43.62041 8.97484 36158 ft 436 kts 11°
2026-04-30 11:18 43.67745 9.00787 36156 ft 446 kts 23°
2026-04-30 11:18 43.70391 9.03090 36160 ft 451 kts 30°
2026-04-30 11:19 43.75348 9.08432 36168 ft 452 kts 33°
2026-04-30 11:19 43.80241 9.13893 36176 ft 452 kts 33°
2026-04-30 11:20 43.85146 9.19355 36171 ft 451 kts 33°
2026-04-30 11:20 43.90032 9.24785 36170 ft 451 kts 33°
2026-04-30 11:21 43.94970 9.30278 36173 ft 450 kts 33°
2026-04-30 11:21 43.99849 9.35715 36176 ft 450 kts 33°
2026-04-30 11:22 44.04712 9.41151 36184 ft 448 kts 33°
2026-04-30 11:22 44.09578 9.46594 36192 ft 448 kts 33°
2026-04-30 11:23 44.14466 9.52079 36189 ft 448 kts 33°
2026-04-30 11:24 44.21736 9.60255 36198 ft 446 kts 33°
2026-04-30 11:24 44.26540 9.65675 36201 ft 445 kts 33°
2026-04-30 11:25 44.33754 9.73835 36208 ft 444 kts 33°
2026-04-30 11:26 44.43333 9.84708 36203 ft 443 kts 34°
2026-04-30 11:26 44.48134 9.90176 36213 ft 442 kts 34°
2026-04-30 11:27 44.52869 9.95583 36207 ft 441 kts 34°
2026-04-30 11:27 44.57615 10.01014 36211 ft 440 kts 34°
2026-04-30 11:28 44.64730 10.09174 36215 ft 441 kts 34°
2026-04-30 11:29 44.69486 10.14645 36222 ft 440 kts 34°
2026-04-30 11:29 44.76557 10.22799 36258 ft 439 kts 34°
2026-04-30 11:30 44.83579 10.31061 36248 ft 439 kts 37°
2026-04-30 11:31 44.88125 10.36812 36257 ft 440 kts 37°
2026-04-30 11:31 44.92674 10.42604 36257 ft 440 kts 37°
2026-04-30 11:32 44.97221 10.48406 36249 ft 439 kts 37°
2026-04-30 11:32 45.01741 10.54177 36262 ft 438 kts 37°
2026-04-30 11:33 45.08478 10.62801 36241 ft 436 kts 37°
2026-04-30 11:33 45.12991 10.68593 36253 ft 436 kts 38°
2026-04-30 11:34 45.17469 10.74351 36248 ft 436 kts 38°
2026-04-30 11:34 45.22031 10.79997 36256 ft 434 kts 37°
2026-04-30 11:35 45.26601 10.85581 36245 ft 432 kts 37°
2026-04-30 11:35 45.31137 10.91148 36266 ft 431 kts 37°
2026-04-30 11:36 45.35648 10.96706 36278 ft 431 kts 37°
2026-04-30 11:36 45.40157 11.02278 36266 ft 430 kts 37°
2026-04-30 11:37 45.44680 11.07885 36273 ft 430 kts 37°
2026-04-30 11:37 45.49171 11.13461 36268 ft 429 kts 37°
2026-04-30 11:38 45.53646 11.19030 36267 ft 428 kts 37°
2026-04-30 11:38 45.58105 11.24591 36273 ft 427 kts 37°
2026-04-30 11:39 45.62591 11.30199 36261 ft 426 kts 37°
2026-04-30 11:39 45.67039 11.35771 36262 ft 426 kts 37°
2026-04-30 11:40 45.71459 11.41322 36260 ft 425 kts 37°
2026-04-30 11:40 45.75890 11.46895 36261 ft 425 kts 37°
2026-04-30 11:41 45.80318 11.52478 36264 ft 423 kts 38°
2026-04-30 11:41 45.84711 11.58032 36253 ft 422 kts 38°
2026-04-30 11:42 45.89106 11.63601 36245 ft 423 kts 38°
2026-04-30 11:42 45.93541 11.69197 36248 ft 421 kts 37°
2026-04-30 11:43 45.98049 11.74455 36253 ft 421 kts 36°
2026-04-30 11:43 46.02610 11.79721 36254 ft 420 kts 36°
2026-04-30 11:44 46.07153 11.84983 36237 ft 420 kts 36°
2026-04-30 11:44 46.11720 11.90286 36251 ft 419 kts 36°
2026-04-30 11:45 46.16271 11.95582 36238 ft 418 kts 36°
2026-04-30 11:45 46.20774 12.00839 36225 ft 418 kts 36°
2026-04-30 11:46 46.25301 12.06134 36234 ft 417 kts 36°
2026-04-30 11:46 46.29793 12.11401 36216 ft 417 kts 36°
2026-04-30 11:47 46.34281 12.16670 36209 ft 417 kts 36°
2026-04-30 11:47 46.38774 12.21958 36203 ft 416 kts 36°
2026-04-30 11:48 46.43255 12.27244 36207 ft 415 kts 37°
2026-04-30 11:48 46.47733 12.32541 36209 ft 416 kts 37°
2026-04-30 11:49 46.52200 12.37834 36216 ft 415 kts 37°
2026-04-30 11:49 46.56668 12.43140 36225 ft 414 kts 37°
2026-04-30 11:50 46.61093 12.48408 36243 ft 414 kts 37°
2026-04-30 11:50 46.65533 12.53708 36248 ft 414 kts 37°
2026-04-30 11:51 46.69817 12.59363 36246 ft 416 kts 42°
2026-04-30 11:51 46.73644 12.65607 36240 ft 416 kts 49°
2026-04-30 11:52 46.77194 12.72295 36218 ft 417 kts 50°
2026-04-30 11:52 46.80695 12.78981 36199 ft 417 kts 50°
2026-04-30 11:53 46.84205 12.85700 36206 ft 416 kts 50°
2026-04-30 11:53 46.87686 12.92368 36210 ft 415 kts 50°
2026-04-30 11:54 46.91188 12.99092 36205 ft 415 kts 50°
2026-04-30 11:54 46.94665 13.05790 36462 ft 414 kts 50°
2026-04-30 11:55 46.96396 13.09132 36312 ft 412 kts 50°
2026-04-30 11:55 46.98107 13.12435 36248 ft 411 kts 50°
2026-04-30 11:55 47.01543 13.19086 36184 ft 410 kts 50°
2026-04-30 11:56 47.04974 13.25738 36171 ft 410 kts 50°
2026-04-30 11:56 47.08396 13.32390 36175 ft 409 kts 50°
2026-04-30 11:57 47.11823 13.39064 36191 ft 409 kts 50°
2026-04-30 11:57 47.15256 13.45773 36190 ft 410 kts 50°
2026-04-30 11:58 47.18654 13.52431 36221 ft 410 kts 50°
2026-04-30 11:58 47.22073 13.59140 36241 ft 409 kts 50°
2026-04-30 11:59 47.25462 13.65808 36244 ft 408 kts 51°
2026-04-30 11:59 47.28883 13.72524 36215 ft 409 kts 50°
2026-04-30 12:00 47.32286 13.79166 36222 ft 408 kts 50°
2026-04-30 12:00 47.35707 13.85856 36241 ft 407 kts 50°
2026-04-30 12:01 47.39092 13.92497 36223 ft 406 kts 50°
2026-04-30 12:01 47.42470 13.99141 36241 ft 406 kts 50°
2026-04-30 12:02 47.45867 14.05836 36274 ft 407 kts 50°
2026-04-30 12:02 47.49248 14.12519 36260 ft 407 kts 50°
2026-04-30 12:03 47.54314 14.22558 36282 ft 407 kts 50°
2026-04-30 12:04 47.57679 14.29256 36296 ft 406 kts 50°
2026-04-30 12:04 47.61043 14.35960 36297 ft 407 kts 50°
2026-04-30 12:05 47.64388 14.42646 36322 ft 407 kts 50°
2026-04-30 12:05 47.67748 14.49378 36308 ft 407 kts 50°
2026-04-30 12:06 47.71108 14.56128 36310 ft 407 kts 50°
2026-04-30 12:06 47.74458 14.62869 36292 ft 407 kts 50°
2026-04-30 12:07 47.77817 14.69653 36302 ft 406 kts 51°
2026-04-30 12:07 47.81156 14.76405 36273 ft 406 kts 51°
2026-04-30 12:08 47.84494 14.83173 36267 ft 405 kts 51°
2026-04-30 12:08 47.87801 14.89897 36318 ft 406 kts 51°
2026-04-30 12:09 47.91122 14.96671 36325 ft 405 kts 51°
2026-04-30 12:09 47.94434 15.03439 36350 ft 405 kts 51°
2026-04-30 12:10 47.97752 15.10232 36352 ft 405 kts 51°
2026-04-30 12:10 48.01062 15.17028 36344 ft 405 kts 51°
2026-04-30 12:11 48.04379 15.23862 36351 ft 405 kts 51°
2026-04-30 12:11 48.07668 15.30646 36349 ft 405 kts 51°
2026-04-30 12:12 48.10969 15.37476 36371 ft 405 kts 51°
2026-04-30 12:12 48.14194 15.44164 36346 ft 405 kts 51°
2026-04-30 12:13 48.17470 15.50978 36357 ft 404 kts 51°
2026-04-30 12:13 48.20782 15.57880 36348 ft 406 kts 51°
2026-04-30 12:14 48.24057 15.64727 36377 ft 404 kts 51°
2026-04-30 12:14 48.27345 15.71619 36372 ft 405 kts 51°
2026-04-30 12:15 48.30619 15.78490 36385 ft 406 kts 52°
2026-04-30 12:15 48.33906 15.85410 36385 ft 406 kts 52°
2026-04-30 12:16 48.37173 15.92307 36709 ft 408 kts 52°
2026-04-30 12:16 48.38828 15.95813 36987 ft 407 kts 52°
2026-04-30 12:16 48.40466 15.99283 37203 ft 408 kts 51°
2026-04-30 12:16 48.42050 16.02795 37355 ft 410 kts 54°
2026-04-30 12:17 48.45058 16.10075 37384 ft 412 kts 55°
2026-04-30 12:17 48.48062 16.17436 37385 ft 413 kts 55°
2026-04-30 12:18 48.51048 16.24770 37385 ft 412 kts 55°
2026-04-30 12:18 48.54043 16.32143 37379 ft 413 kts 55°
2026-04-30 12:19 48.57037 16.39532 37391 ft 413 kts 55°
2026-04-30 12:19 48.60041 16.46962 37381 ft 413 kts 55°
2026-04-30 12:20 48.63009 16.54327 37384 ft 413 kts 55°
2026-04-30 12:20 48.65984 16.61729 37378 ft 412 kts 55°
2026-04-30 12:21 48.68982 16.69208 37371 ft 412 kts 56°
2026-04-30 12:21 48.71970 16.76600 37376 ft 413 kts 54°
2026-04-30 12:22 48.75295 16.83600 37375 ft 410 kts 49°
2026-04-30 12:22 48.78823 16.90407 37380 ft 410 kts 49°
2026-04-30 12:23 48.82345 16.97189 37381 ft 411 kts 49°
2026-04-30 12:23 48.85882 17.04030 37395 ft 410 kts 49°
2026-04-30 12:24 48.89392 17.10834 37383 ft 411 kts 49°
2026-04-30 12:24 48.92923 17.17689 37388 ft 410 kts 49°
2026-04-30 12:25 48.96421 17.24504 37401 ft 410 kts 49°
2026-04-30 12:25 48.99940 17.31374 37404 ft 410 kts 49°
2026-04-30 12:26 49.03439 17.38228 37391 ft 410 kts 49°
2026-04-30 12:26 49.06921 17.45066 37397 ft 410 kts 49°
2026-04-30 12:27 49.10421 17.51958 37393 ft 410 kts 49°
2026-04-30 12:27 49.13921 17.58862 37390 ft 410 kts 49°
2026-04-30 12:28 49.17429 17.65803 37379 ft 410 kts 50°
2026-04-30 12:28 49.20940 17.72769 37378 ft 411 kts 50°
2026-04-30 12:29 49.24427 17.79703 37365 ft 411 kts 50°
2026-04-30 12:29 49.27884 17.86595 37365 ft 410 kts 50°
2026-04-30 12:30 49.31343 17.93511 37352 ft 410 kts 50°
2026-04-30 12:30 49.34830 18.00499 37360 ft 411 kts 50°
2026-04-30 12:31 49.38276 18.07428 37365 ft 411 kts 50°
2026-04-30 12:31 49.41753 18.14433 37362 ft 410 kts 50°
2026-04-30 12:32 49.45196 18.21389 37361 ft 411 kts 50°
2026-04-30 12:32 49.48650 18.28382 37361 ft 411 kts 50°
2026-04-30 12:33 49.52107 18.35401 37366 ft 411 kts 50°
2026-04-30 12:33 49.55534 18.42379 37353 ft 411 kts 50°
2026-04-30 12:34 49.58958 18.49369 37356 ft 411 kts 50°
2026-04-30 12:34 49.62414 18.56444 37353 ft 411 kts 50°
2026-04-30 12:35 49.65954 18.63361 37358 ft 410 kts 46°
2026-04-30 12:35 49.69928 18.69712 37359 ft 408 kts 41°
2026-04-30 12:36 49.74289 18.75341 37362 ft 408 kts 36°
2026-04-30 12:36 49.78959 18.80236 37362 ft 407 kts 32°
2026-04-30 12:37 49.83711 18.84887 37354 ft 406 kts 32°
2026-04-30 12:37 49.88483 18.89557 37357 ft 405 kts 31°
2026-04-30 12:38 49.93236 18.94223 37362 ft 405 kts 32°
2026-04-30 12:38 49.98057 18.98964 37377 ft 405 kts 32°
2026-04-30 12:39 50.02829 19.03668 37388 ft 405 kts 32°
2026-04-30 12:39 50.07609 19.08398 37391 ft 405 kts 32°
2026-04-30 12:40 50.12394 19.13141 37394 ft 403 kts 32°
2026-04-30 12:40 50.17104 19.17820 37388 ft 404 kts 32°
2026-04-30 12:41 50.21856 19.22548 37392 ft 405 kts 32°
2026-04-30 12:41 50.26561 19.27246 37397 ft 404 kts 32°
2026-04-30 12:42 50.31284 19.31972 37393 ft 404 kts 32°
2026-04-30 12:42 50.36006 19.36710 37393 ft 404 kts 32°
2026-04-30 12:43 50.40710 19.41438 37383 ft 403 kts 32°
2026-04-30 12:43 50.45417 19.46182 37392 ft 403 kts 32°
2026-04-30 12:44 50.50155 19.50968 37382 ft 402 kts 32°
2026-04-30 12:44 50.54845 19.55718 37180 ft 402 kts 32°
2026-04-30 12:45 50.57206 19.58109 36895 ft 399 kts 32°
2026-04-30 12:45 50.59503 19.60443 36522 ft 395 kts 32°
2026-04-30 12:45 50.61806 19.62781 36014 ft 395 kts 32°
2026-04-30 12:45 50.64113 19.65127 35399 ft 397 kts 33°
2026-04-30 12:46 50.66425 19.67481 34735 ft 399 kts 33°
2026-04-30 12:46 50.68754 19.69857 34092 ft 401 kts 34°
2026-04-30 12:46 50.71080 19.72236 33452 ft 401 kts 33°
2026-04-30 12:46 50.73409 19.74620 32926 ft 397 kts 33°
2026-04-30 12:47 50.75694 19.76960 32382 ft 392 kts 34°
2026-04-30 12:47 50.77969 19.79293 31870 ft 386 kts 34°
2026-04-30 12:47 50.80175 19.81560 31383 ft 380 kts 34°
2026-04-30 12:47 50.82364 19.83813 30886 ft 373 kts 33°
2026-04-30 12:48 50.84531 19.86048 30390 ft 367 kts 33°
2026-04-30 12:48 50.86643 19.88221 29914 ft 361 kts 33°
2026-04-30 12:48 50.88701 19.90343 29476 ft 354 kts 33°
2026-04-30 12:48 50.90757 19.92467 29034 ft 348 kts 33°
2026-04-30 12:49 50.92744 19.94519 28613 ft 343 kts 33°
2026-04-30 12:49 50.94720 19.96563 28196 ft 338 kts 34°
2026-04-30 12:49 50.96674 19.98585 27778 ft 332 kts 33°
2026-04-30 12:49 50.98586 20.00569 27371 ft 328 kts 33°
2026-04-30 12:50 51.00488 20.02545 26972 ft 323 kts 33°
2026-04-30 12:50 51.02329 20.04459 26577 ft 319 kts 33°
2026-04-30 12:50 51.04176 20.06377 26182 ft 315 kts 33°
2026-04-30 12:50 51.05992 20.08264 25792 ft 311 kts 33°
2026-04-30 12:51 51.07777 20.10127 25413 ft 307 kts 33°
2026-04-30 12:51 51.09558 20.11983 25033 ft 303 kts 33°
2026-04-30 12:51 51.11286 20.13784 24672 ft 301 kts 33°
2026-04-30 12:51 51.13060 20.15636 24295 ft 298 kts 33°
2026-04-30 12:52 51.14771 20.17425 23933 ft 296 kts 33°
2026-04-30 12:52 51.16491 20.19224 23564 ft 295 kts 33°
2026-04-30 12:52 51.18197 20.21013 23158 ft 293 kts 33°
2026-04-30 12:52 51.19889 20.22783 22760 ft 292 kts 33°
2026-04-30 12:53 51.21591 20.24570 22352 ft 290 kts 33°
2026-04-30 12:53 51.23275 20.26338 21912 ft 290 kts 33°
2026-04-30 12:53 51.24950 20.28098 21484 ft 290 kts 33°
2026-04-30 12:53 51.26623 20.29857 21045 ft 290 kts 33°
2026-04-30 12:54 51.28298 20.31619 20605 ft 289 kts 33°
2026-04-30 12:54 51.29987 20.33400 20192 ft 288 kts 32°
2026-04-30 12:54 51.31639 20.35143 19772 ft 288 kts 33°
2026-04-30 12:54 51.33307 20.36902 19345 ft 287 kts 33°
2026-04-30 12:55 51.34956 20.38643 18900 ft 287 kts 33°
2026-04-30 12:55 51.36628 20.40414 18447 ft 287 kts 33°
2026-04-30 12:55 51.38297 20.42180 18014 ft 287 kts 33°
2026-04-30 12:55 51.39952 20.43933 17575 ft 286 kts 33°
2026-04-30 12:56 51.41600 20.45680 17125 ft 286 kts 33°
2026-04-30 12:56 51.43261 20.47444 16669 ft 287 kts 32°
2026-04-30 12:56 51.44924 20.49210 16218 ft 287 kts 32°
2026-04-30 12:56 51.46577 20.50966 15768 ft 286 kts 33°
2026-04-30 12:57 51.48236 20.52730 15319 ft 286 kts 33°
2026-04-30 12:57 51.49890 20.54493 14855 ft 286 kts 33°
2026-04-30 12:57 51.51534 20.56244 14406 ft 286 kts 33°
2026-04-30 12:57 51.53189 20.58011 13964 ft 285 kts 33°
2026-04-30 12:58 51.54844 20.59779 13515 ft 285 kts 32°
2026-04-30 12:58 51.56490 20.61540 13060 ft 284 kts 32°
2026-04-30 12:58 51.58124 20.63288 12612 ft 284 kts 32°
2026-04-30 12:58 51.59744 20.65023 12159 ft 283 kts 33°
2026-04-30 12:59 51.61400 20.66798 11705 ft 283 kts 33°
2026-04-30 12:59 51.63049 20.68567 11251 ft 282 kts 33°
2026-04-30 12:59 51.64674 20.70313 10810 ft 282 kts 33°
2026-04-30 12:59 51.66300 20.72061 10460 ft 277 kts 33°
2026-04-30 13:00 51.67866 20.73746 10400 ft 262 kts 33°
2026-04-30 13:00 51.69357 20.75352 10125 ft 257 kts 33°
2026-04-30 13:00 51.70843 20.76952 9712 ft 257 kts 33°
2026-04-30 13:00 51.72323 20.78546 9319 ft 256 kts 33°
2026-04-30 13:01 51.73779 20.80114 8945 ft 254 kts 33°
2026-04-30 13:01 51.75252 20.81704 8572 ft 252 kts 33°
2026-04-30 13:01 51.76704 20.83272 8197 ft 251 kts 33°
2026-04-30 13:01 51.78158 20.84844 7824 ft 250 kts 33°
2026-04-30 13:02 51.79587 20.86390 7455 ft 249 kts 33°
2026-04-30 13:02 51.81013 20.87934 7091 ft 247 kts 33°
2026-04-30 13:02 51.82440 20.89480 6731 ft 246 kts 33°
2026-04-30 13:02 51.83845 20.91005 6373 ft 244 kts 32°
2026-04-30 13:03 51.85256 20.92537 6020 ft 243 kts 32°
2026-04-30 13:03 51.86657 20.94060 5665 ft 241 kts 32°
2026-04-30 13:03 51.88058 20.95583 5312 ft 241 kts 32°
2026-04-30 13:03 51.89445 20.97092 4958 ft 240 kts 32°
2026-04-30 13:04 51.90821 20.98589 4612 ft 239 kts 32°
2026-04-30 13:04 51.92215 21.00106 4263 ft 239 kts 32°
2026-04-30 13:04 51.93550 21.01561 3926 ft 238 kts 32°
2026-04-30 13:04 51.94865 21.02996 3589 ft 238 kts 32°
2026-04-30 13:05 51.96236 21.04495 3248 ft 238 kts 32°
2026-04-30 13:05 51.97599 21.05987 3175 ft 225 kts 32°
2026-04-30 13:05 51.98857 21.07366 3140 ft 211 kts 32°
2026-04-30 13:06 52.01270 21.09311 3025 ft 181 kts 359°
2026-04-30 13:06 52.02462 21.08865 3048 ft 174 kts 340°
2026-04-30 13:06 52.03569 21.08063 2998 ft 175 kts 335°
2026-04-30 13:06 52.04650 21.07163 2783 ft 174 kts 333°
2026-04-30 13:07 52.05708 21.06238 2550 ft 173 kts 333°
2026-04-30 13:07 52.06772 21.05299 2314 ft 172 kts 332°
2026-04-30 13:07 52.07820 21.04376 2083 ft 173 kts 331°
2026-04-30 13:07 52.08870 21.03454 1875 ft 164 kts 333°
2026-04-30 13:08 52.09827 21.02618 1643 ft 148 kts 331°
2026-04-30 13:08 52.10674 21.01877 1421 ft 133 kts 331°
2026-04-30 13:08 52.11459 21.01190 1236 ft 125 kts 332°
2026-04-30 13:08 52.12221 21.00531 1078 ft 126 kts 329°
2026-04-30 13:09 52.12994 20.99838 915 ft 126 kts 328°
2026-04-30 13:09 52.13771 20.99156 741 ft 126 kts 330°
2026-04-30 13:09 52.14543 20.98491 593 ft 125 kts 329°
2026-04-30 13:09 52.15306 20.97822 427 ft 124 kts 330°
2026-04-30 13:10 52.16036 20.97181 339 ft 104 kts 330°
2026-04-30 13:10 52.16527 20.96753 337 ft 58 kts 331°
2026-04-30 13:10 52.16860 20.96514 337 ft 46 kts 354°
2026-04-30 13:10 52.17062 20.96525 337 ft 13 kts 23°
2026-04-30 13:11 52.17116 20.96650 336 ft 14 kts 64°
2026-04-30 13:11 52.17165 20.96793 337 ft 13 kts 43°
2026-04-30 13:11 52.17253 20.96763 338 ft 13 kts 330°
2026-04-30 13:11 52.17323 20.96695 338 ft 4 kts 304°
2026-04-30 13:12 52.17310 20.96641 338 ft 6 kts 235°
2026-04-30 13:12 52.17281 20.96607 338 ft 1 kts 208°
2026-04-30 13:12 52.17278 20.96605 338 ft 0 kts 207°